Tracking 18844 objects as of 21-Nov-2017
HD Live streaming from Space Station
objects crossing your sky now

FENGYUN 1C DEB

Track FENGYUN 1C DEB now!
10-day predictions


NORAD ID: 36695
Int'l Code: 1999-025DZR
Perigee: 576.2 km
Apogee: 969.9 km
Inclination: 98.4 °
Period: 100.2 minutes
Semi major axis: 7144 km
RCS: 0.0082 m2 (small)
Launch date: May 10, 1999
Source: People's Republic of China (PRC)
Launch site: Taiyaun Space Center, China (TSC)

Note: This is SATELLITE DEBRIS
aabbcc
Your satellite tracking list
Your tracking list is empty




NASA's NSSDC Master Catalog

Two Line Element Set (TLE):
1 36695U 99025DZR 17323.00208997  .00000145  00000-0  43026-4 0  9994
2 36695  98.3831  15.7238 0275554  19.6496 341.5063 14.37758429472760
Source of the keplerian elements: AFSPC